Retour au catalogue

STARLINK-4719

ActifCommunicationsVLEO
NORAD 53774·PAYLOAD·🇺🇸 United States

Lancé Sep 11, 2022 depuis Cape Canaveral Space Force Station

Loading…

Prochains Passages (prochaines 24 heures)

TLE

FraisSource: CelesTrak SupGP

Époque: Sep 14, 2026, 22:22 UTC

1 53774C 22111B   26257.93243056 -.00017310  00000+0 -55670-3 0  2573
2 53774  53.1585 144.4574 0001542  85.8661 160.4511 15.31707641    14

Suivez STARLINK-4719 en temps réel avec AllMySat

Download on the App Store